GW3691 Weather Reports


Display with metric or nautical units.
time (UTC)temp
F
wind
direction
speed
MPH
gust
MPH
rain 1hr
in
rain 24hr
in
rain mn
in
humidity
%
barometer
mb
20240226134426 55 115 0.0 0.0 0.00 0.00 0.00 97 1027.8
20240226133925 56 116 0.0 0.0 0.00 0.00 0.00 97 1027.8
20240226133424 55 116 0.0 0.0 0.00 0.00 0.00 97 1027.6
20240226132924 55 117 0.0 0.0 0.00 0.00 0.00 97 1027.8
20240226132422 52 117 0.0 0.0 0.00 0.00 0.00 97 1027.6
20240226131921 48 117 0.0 0.0 0.00 0.00 0.00 97 1027.6
20240226131421 46 117 0.0 0.0 0.00 0.00 0.00 97 1027.6
20240226130919 45 117 0.0 0.0 0.00 0.00 0.00 97 1027.5
20240226130418 43 117 0.0 0.0 0.00 0.00 0.00 97 1027.5
20240226125917 43 118 0.0 0.0 0.00 0.00 0.00 97 1027.6
20240226125415 42 118 0.0 0.0 0.00 0.00 0.00 97 1027.3
20240226124915 41 118 0.0 0.0 0.00 0.00 0.00 97 1027.3
20240226124413 41 118 0.0 0.0 0.00 0.00 0.00 97 1027.4
20240226123914 41 118 0.0 0.0 0.00 0.00 0.00 97 1027.3
20240226123412 41 118 0.0 0.0 0.00 0.00 0.00 97 1027.3
20240226122910 41 118 0.0 0.0 0.00 0.00 0.00 97 1027.1
20240226122408 41 118 0.0 0.0 0.00 0.00 0.00 97 1027.4
20240226121908 40 118 0.0 0.0 0.00 0.00 0.00 97 1027.2
20240226121407 40 118 0.0 0.0 0.00 0.00 0.00 97 1027.1
20240226120905 40 118 0.0 0.0 0.00 0.00 0.00 97 1027.1
20240226120404 40 118 0.0 0.0 0.00 0.00 0.00 97 1027.4
20240226115903 40 118 0.0 0.0 0.00 0.00 0.00 97 1027.2
20240226115401 40 118 0.0 0.0 0.00 0.00 0.00 97 1027.1
20240226114900 40 118 0.0 0.0 0.00 0.00 0.00 97 1027.0
20240226114358 40 118 0.0 0.0 0.00 0.00 0.00 97 1026.9
20240226113856 40 118 0.0 0.0 0.00 0.00 0.00 97 1026.9
20240226113354 40 118 0.0 0.0 0.00 0.00 0.00 97 1026.8
20240226112852 40 118 0.0 0.0 0.00 0.00 0.00 97 1026.8
20240226112351 40 118 0.0 0.0 0.00 0.00 0.00 97 1027.1
20240226111849 40 118 0.0 0.0 0.00 0.00 0.00 97 1026.8
20240226111348 40 118 0.0 0.0 0.00 0.00 0.00 97 1026.7
20240226110847 40 118 0.0 0.0 0.00 0.00 0.00 97 1026.6
20240226110347 40 118 0.0 0.0 0.00 0.00 0.00 97 1026.8
20240226105845 40 118 0.0 0.0 0.00 0.00 0.00 97 1026.7
20240226105343 40 118 0.0 0.0 0.00 0.00 0.00 97 1027.0
20240226104842 41 117 0.0 0.0 0.00 0.00 0.00 97 1026.7
20240226104342 41 117 0.0 0.0 0.00 0.00 0.00 97 1026.8
20240226103841 40 118 0.0 0.0 0.00 0.00 0.00 97 1026.5
20240226103340 41 118 0.0 0.0 0.00 0.00 0.00 97 1026.7
20240226102839 40 118 0.0 0.0 0.00 0.00 0.00 96 1026.8
20240226102340 40 118 0.0 0.0 0.00 0.00 0.00 96 1026.6
20240226101839 40 118 0.0 0.0 0.00 0.00 0.00 96 1026.6
20240226101337 40 118 0.0 0.0 0.00 0.00 0.00 96 1026.8
20240226100836 40 118 0.0 0.0 0.00 0.00 0.00 96 1026.7
20240226100334 41 118 0.0 0.0 0.00 0.00 0.00 96 1026.4
20240226095832 41 118 0.0 0.0 0.00 0.00 0.00 96 1026.4
20240226095331 41 118 0.0 0.0 0.00 0.00 0.00 96 1026.5
20240226094831 41 118 0.0 0.0 0.00 0.00 0.00 96 1026.6
20240226094329 41 118 0.0 0.0 0.00 0.00 0.00 96 1026.4
20240226093828 41 118 0.0 0.0 0.00 0.00 0.00 96 1026.4
20240226093326 41 118 0.0 0.0 0.00 0.00 0.00 96 1026.4
20240226092827 41 118 0.0 0.0 0.00 0.00 0.00 96 1026.4
20240226092326 41 118 0.0 0.0 0.00 0.00 0.00 96 1026.5
20240226091825 41 118 0.0 0.0 0.00 0.00 0.00 96 1026.5
20240226091324 41 118 0.0 0.0 0.00 0.00 0.00 96 1026.5
20240226090823 41 118 0.0 0.0 0.00 0.00 0.00 96 1026.3
20240226090322 41 118 0.0 0.0 0.00 0.00 0.00 96 1026.5
20240226085822 41 118 0.0 0.0 0.00 0.00 0.00 96 1026.3
20240226085320 41 118 0.0 0.0 0.00 0.00 0.00 96 1026.5
20240226084820 42 118 0.0 0.0 0.00 0.00 0.00 96 1026.6
20240226084320 42 118 0.0 0.0 0.00 0.00 0.00 96 1026.6
20240226083819 42 118 0.0 0.0 0.00 0.00 0.00 96 1026.7
20240226083318 41 118 0.0 0.0 0.00 0.00 0.00 96 1026.9
20240226082817 41 118 0.0 0.0 0.00 0.00 0.00 96 1026.6
20240226082315 41 118 0.0 0.0 0.00 0.00 0.00 96 1026.7
20240226081813 41 118 0.0 0.0 0.00 0.00 0.00 96 1026.4
20240226081312 42 118 0.0 0.0 0.00 0.00 0.00 96 1026.6
20240226080811 42 118 0.0 0.0 0.00 0.00 0.00 96 1026.6
20240226080310 41 118 0.0 0.0 0.00 0.00 0.00 96 1026.7
20240226075808 41 118 0.0 0.0 0.00 0.00 0.00 96 1026.6
20240226075308 41 118 0.0 0.0 0.00 0.00 0.00 96 1026.6
20240226074805 42 118 0.0 0.0 0.00 0.00 0.00 96 1026.7
20240226074304 42 118 0.0 0.0 0.00 0.00 0.00 96 1026.7
20240226073802 42 118 0.0 0.0 0.00 0.00 0.00 96 1026.5
20240226073300 42 118 0.0 0.0 0.00 0.00 0.00 96 1026.5
20240226072758 42 118 0.0 0.0 0.00 0.00 0.00 96 1026.7
20240226072257 42 118 0.0 0.0 0.00 0.00 0.00 96 1026.6
20240226071756 42 118 0.0 0.0 0.00 0.00 0.00 96 1026.6
20240226071255 42 118 0.0 0.0 0.00 0.00 0.00 96 1026.7
20240226070754 42 118 0.0 0.0 0.00 0.00 0.00 96 1026.8
20240226070252 42 118 0.0 0.0 0.00 0.00 0.00 96 1026.8
20240226065751 43 118 0.0 0.0 0.00 0.00 0.00 96 1026.8
20240226065250 43 118 0.0 0.0 0.00 0.00 0.00 96 1026.7
20240226064748 43 118 0.0 0.0 0.00 0.00 0.00 96 1026.7
20240226064246 43 118 0.0 0.0 0.00 0.00 0.00 96 1026.7
20240226063745 43 118 0.0 0.0 0.00 0.00 0.00 95 1026.7
20240226063244 43 118 0.0 0.0 0.00 0.00 0.00 95 1026.7
20240226062742 43 118 0.0 0.0 0.00 0.00 0.00 95 1026.6
20240226062240 43 118 0.0 0.0 0.00 0.00 0.00 95 1026.5
20240226061738 43 118 0.0 0.0 0.00 0.00 0.00 95 1026.3
20240226061237 43 118 0.0 0.0 0.00 0.00 0.00 95 1026.5
20240226060735 43 118 0.0 0.0 0.00 0.00 0.00 95 1026.3
20240226060232 43 118 0.0 0.0 0.00 0.00 0.00 95 1026.2
20240226055730 43 118 0.0 0.0 0.00 0.00 0.00 95 1026.5
20240226055229 43 118 0.0 0.0 0.00 0.00 0.00 95 1026.5
20240226054725 43 118 0.0 0.0 0.00 0.00 0.00 95 1026.5
20240226054223 43 118 0.0 0.0 0.00 0.00 0.00 95 1026.7
20240226053722 43 118 0.0 0.0 0.00 0.00 0.00 95 1026.6
20240226053220 43 118 0.0 0.0 0.00 0.00 0.00 95 1026.7
20240226052719 44 118 0.0 0.0 0.00 0.00 0.00 95 1026.5
20240226052217 44 118 0.0 0.0 0.00 0.00 0.00 95 1026.6
20240226051716 44 118 0.0 0.0 0.00 0.00 0.00 95 1026.4
20240226051214 44 117 0.0 0.0 0.00 0.00 0.00 95 1026.6
20240226050711 44 118 0.0 0.0 0.00 0.00 0.00 95 1026.4
20240226050208 44 118 0.0 0.0 0.00 0.00 0.00 95 1026.4
20240226045705 44 118 0.0 0.0 0.00 0.00 0.00 95 1026.6
20240226045203 44 118 0.0 0.0 0.00 0.00 0.00 95 1026.5
20240226044702 44 118 0.0 0.0 0.00 0.00 0.00 95 1026.5
20240226044200 45 118 0.0 0.0 0.00 0.00 0.00 94 1026.3
20240226043658 44 118 0.0 0.0 0.00 0.00 0.00 94 1026.5
20240226043157 44 118 0.0 0.0 0.00 0.00 0.00 94 1026.3
20240226042657 44 118 0.0 0.0 0.00 0.00 0.00 94 1026.5
20240226042153 44 118 0.0 0.0 0.00 0.00 0.00 94 1026.5
20240226041652 44 118 0.0 0.0 0.00 0.00 0.00 94 1026.2
20240226041150 44 118 0.0 0.0 0.00 0.00 0.00 94 1026.6
20240226040648 44 117 0.0 0.0 0.00 0.00 0.00 94 1026.4
20240226040146 45 118 0.0 0.0 0.00 0.00 0.00 94 1026.6
20240226035645 45 117 0.0 0.0 0.00 0.00 0.00 94 1026.4
20240226035144 44 117 0.0 0.0 0.00 0.00 0.00 93 1026.5
20240226034643 45 117 0.0 0.0 0.00 0.00 0.00 93 1026.3
20240226034142 45 117 0.0 0.0 0.00 0.00 0.00 93 1026.5
20240226033641 45 118 0.0 0.0 0.00 0.00 0.00 93 1026.4
20240226033139 45 117 0.0 0.0 0.00 0.00 0.00 93 1026.4
20240226032637 45 117 0.0 0.0 0.00 0.00 0.00 93 1026.6
20240226032136 45 117 0.0 0.0 0.00 0.00 0.00 92 1026.3
20240226031635 45 117 0.0 0.0 0.00 0.00 0.00 92 1026.4
20240226031133 45 117 0.0 0.0 0.00 0.00 0.00 92 1026.2
20240226030631 45 117 0.0 0.0 0.00 0.00 0.00 92 1026.2
20240226030130 45 117 0.0 0.0 0.00 0.00 0.00 92 1026.3
20240226025627 46 117 0.0 0.0 0.00 0.00 0.00 92 1026.0
20240226025125 46 117 0.0 0.0 0.00 0.00 0.00 91 1026.1
20240226024622 46 117 0.0 0.0 0.00 0.00 0.00 91 1026.0
20240226024120 45 117 0.0 0.0 0.00 0.00 0.00 91 1026.0
20240226023620 45 117 0.0 0.0 0.00 0.00 0.00 90 1026.2
20240226023118 46 117 0.0 0.0 0.00 0.00 0.00 90 1026.3
20240226022616 46 117 0.0 0.0 0.00 0.00 0.00 90 1026.0
20240226022116 46 117 0.0 0.0 0.00 0.00 0.00 89 1026.0
20240226021614 46 117 0.0 0.0 0.00 0.00 0.00 89 1025.9
20240226021113 46 117 0.0 0.0 0.00 0.00 0.00 89 1025.8
20240226020612 46 117 0.0 0.0 0.00 0.00 0.00 89 1025.7
20240226020111 46 117 0.0 0.0 0.00 0.00 0.00 88 1026.0
20240226015610 47 117 0.0 0.0 0.00 0.00 0.00 88 1026.1
20240226015108 47 117 0.0 0.0 0.00 0.00 0.00 87 1025.7
20240226014608 47 117 0.0 0.0 0.00 0.00 0.00 87 1025.6
20240226014107 47 117 0.0 0.0 0.00 0.00 0.00 87 1025.8
20240226013606 47 117 0.0 0.0 0.00 0.00 0.00 85 1026.0
20240226013105 48 117 0.0 0.0 0.00 0.00 0.00 85 1025.8
20240226012604 48 117 0.0 0.0 0.00 0.00 0.00 84 1025.7
20240226012102 49 117 0.0 0.0 0.00 0.00 0.00 84 1025.8
20240226011600 49 117 0.0 0.0 0.00 0.00 0.00 84 1025.8
20240226011059 48 117 0.0 0.0 0.00 0.00 0.00 84 1025.9
20240226010558 48 117 0.0 0.0 0.00 0.00 0.00 83 1025.8
20240226010056 49 117 0.0 0.0 0.00 0.00 0.00 82 1026.0
20240226005555 49 117 0.0 0.0 0.00 0.00 0.00 82 1025.8
20240226005054 49 117 0.0 0.0 0.00 0.00 0.00 82 1025.9
20240226004554 49 117 0.0 0.0 0.00 0.00 0.00 82 1025.7
20240226004052 50 117 0.0 0.0 0.00 0.00 0.00 81 1025.7
20240226003551 50 117 0.0 0.0 0.00 0.00 0.00 81 1025.7
20240226003050 50 117 0.0 0.0 0.00 0.00 0.00 81 1025.7
20240226002548 50 117 0.0 0.0 0.00 0.00 0.00 79 1025.8
20240226002046 51 117 0.0 0.0 0.00 0.00 0.00 77 1025.7
20240226001545 51 117 0.0 0.0 0.00 0.00 0.00 75 1025.6
20240226001044 51 117 0.0 0.0 0.00 0.00 0.00 72 1025.7
20240226000543 52 117 0.0 0.0 0.00 0.00 0.00 72 1025.7
20240226000042 52 117 0.0 0.0 0.00 0.00 0.00 71 1025.6
20240225235541 53 117 0.0 0.0 0.00 0.00 0.00 70 1025.5
20240225235040 53 117 0.0 0.0 0.00 0.00 0.00 70 1025.2
20240225234539 54 117 0.0 0.0 0.00 0.00 0.00 70 1025.2
20240225234037 55 117 0.0 0.0 0.00 0.00 0.00 69 1025.3
20240225233536 55 117 0.0 0.0 0.00 0.00 0.00 67 1025.5
20240225233036 56 117 0.0 0.0 0.00 0.00 0.00 66 1025.1
20240225232534 57 116 0.0 0.0 0.00 0.00 0.00 65 1025.2
20240225232033 57 117 0.0 0.0 0.00 0.00 0.00 64 1025.2
20240225231532 58 116 0.0 0.0 0.00 0.00 0.00 61 1025.2
20240225231031 58 119 0.0 1.0 0.00 0.00 0.00 61 1025.0
20240225230530 58 121 0.0 0.0 0.00 0.00 0.00 61 1025.2
20240225230029 59 87 0.0 0.0 0.00 0.00 0.00 60 1025.0
20240225225528 59 117 0.0 0.0 0.00 0.00 0.00 59 1024.8
20240225225027 59 90 0.0 1.0 0.00 0.00 0.00 60 1025.1
20240225224526 59 121 1.0 1.0 0.00 0.00 0.00 59 1024.9
20240225224025 60 65 2.0 3.0 0.00 0.00 0.00 59 1024.9
20240225223525 60 116 1.0 1.0 0.00 0.00 0.00 59 1024.8
20240225223025 60 127 1.0 1.0 0.00 0.00 0.00 60 1024.8
20240225222524 60 106 1.0 1.0 0.00 0.00 0.00 59 1024.9
20240225222024 61 126 0.0 1.0 0.00 0.00 0.00 59 1024.7
20240225221522 61 76 3.0 5.0 0.00 0.00 0.00 57 1024.8
20240225221021 62 106 1.0 2.0 0.00 0.00 0.00 56 1024.7
20240225220519 62 87 2.0 2.0 0.00 0.00 0.00 54 1025.0
20240225220019 62 128 2.0 2.0 0.00 0.00 0.00 53 1024.9
20240225215518 62 286 3.0 3.0 0.00 0.00 0.00 53 1024.6
20240225215016 63 112 1.0 2.0 0.00 0.00 0.00 51 1024.8
20240225214514 63 129 1.0 1.0 0.00 0.00 0.00 51 1024.8
20240225214013 63 89 2.0 2.0 0.00 0.00 0.00 53 1024.8
20240225213511 63 138 0.0 0.0 0.00 0.00 0.00 54 1024.8
20240225213010 64 159 2.0 3.0 0.00 0.00 0.00 52 1025.0
20240225212508 64 53 3.0 5.0 0.00 0.00 0.00 52 1024.8
20240225212007 64 162 1.0 1.0 0.00 0.00 0.00 51 1025.0
20240225211506 64 143 0.0 1.0 0.00 0.00 0.00 52 1024.8
20240225211005 64 38 4.0 6.0 0.00 0.00 0.00 51 1024.8
20240225210503 64 179 0.0 1.0 0.00 0.00 0.00 51 1024.6
20240225210003 64 96 0.0 1.0 0.00 0.00 0.00 50 1024.6
20240225205502 65 107 1.0 2.0 0.00 0.00 0.00 48 1024.7
20240225205001 65 89 2.0 3.0 0.00 0.00 0.00 50 1024.8
20240225204500 65 123 1.0 1.0 0.00 0.00 0.00 47 1024.8
20240225203958 65 128 1.0 1.0 0.00 0.00 0.00 49 1024.6
20240225203457 65 108 1.0 1.0 0.00 0.00 0.00 48 1024.9
20240225202954 65 64 1.0 2.0 0.00 0.00 0.00 49 1024.7
20240225202452 65 356 1.0 2.0 0.00 0.00 0.00 48 1024.5
20240225201950 65 359 3.0 3.0 0.00 0.00 0.00 47 1024.7
20240225201448 66 2 5.0 6.0 0.00 0.00 0.00 47 1024.9
20240225200946 66 67 2.0 2.0 0.00 0.00 0.00 47 1024.6
20240225200446 66 88 3.0 3.0 0.00 0.00 0.00 46 1024.6
20240225195945 66 115 2.0 2.0 0.00 0.00 0.00 47 1024.8
20240225195444 65 60 2.0 3.0 0.00 0.00 0.00 46 1024.9
20240225194943 66 101 1.0 1.0 0.00 0.00 0.00 47 1024.9
20240225194442 67 110 2.0 2.0 0.00 0.00 0.00 45 1024.6
20240225193940 67 133 1.0 2.0 0.00 0.00 0.00 47 1024.8
20240225193438 66 82 2.0 2.0 0.00 0.00 0.00 46 1024.8
20240225192938 66 1 2.0 2.0 0.00 0.00 0.00 45 1024.8
20240225192436 66 115 2.0 5.0 0.00 0.00 0.00 45 1024.9
20240225191935 67 183 3.0 5.0 0.00 0.00 0.00 45 1024.7
20240225191434 67 87 2.0 2.0 0.00 0.00 0.00 46 1024.7
20240225190934 67 148 0.0 1.0 0.00 0.00 0.00 46 1024.7
20240225190432 68 122 1.0 2.0 0.00 0.00 0.00 45 1024.7
20240225185932 68 66 2.0 3.0 0.00 0.00 0.00 46 1024.7
20240225185431 68 197 1.0 1.0 0.00 0.00 0.00 44 1024.7
20240225184930 68 306 2.0 2.0 0.00 0.00 0.00 45 1024.5
20240225184429 69 94 2.0 3.0 0.00 0.00 0.00 45 1025.1
20240225183928 70 255 3.0 3.0 0.00 0.00 0.00 29 1024.7
20240225183427 70 152 2.0 2.0 0.00 0.00 0.00 32 1024.7
20240225182927 69 318 3.0 3.0 0.00 0.00 0.00 40 1025.1
20240225182425 69 208 2.0 2.0 0.00 0.00 0.00 32 1024.8
20240225181923 70 321 1.0 1.0 0.00 0.00 0.00 32 1024.9
20240225181421 70 100 2.0 3.0 0.00 0.00 0.00 31 1025.1
20240225180919 70 177 2.0 2.0 0.00 0.00 0.00 31 1024.9
20240225180418 70 91 1.0 1.0 0.00 0.00 0.00 29 1025.1
20240225175915 71 313 0.0 1.0 0.00 0.00 0.00 33 1025.2
20240225175413 70 145 0.0 1.0 0.00 0.00 0.00 31 1025.1
20240225174911 69 86 2.0 2.0 0.00 0.00 0.00 32 1025.3
20240225174409 69 359 2.0 2.0 0.00 0.00 0.00 31 1025.3
20240225173909 69 25 3.0 3.0 0.00 0.00 0.00 34 1025.3
20240225173408 69 182 1.0 1.0 0.00 0.00 0.00 32 1025.3
20240225172907 69 21 2.0 2.0 0.00 0.00 0.00 32 1025.3
20240225172406 69 288 2.0 3.0 0.00 0.00 0.00 34 1025.4
20240225171904 68 28 1.0 2.0 0.00 0.00 0.00 32 1025.7
20240225171404 69 187 2.0 3.0 0.00 0.00 0.00 35 1025.6
20240225170903 69 292 1.0 1.0 0.00 0.00 0.00 36 1025.6
20240225170401 69 206 1.0 2.0 0.00 0.00 0.00 35 1025.8
20240225165859 68 247 0.0 1.0 0.00 0.00 0.00 36 1025.9
20240225165358 67 98 1.0 1.0 0.00 0.00 0.00 39 1025.9
20240225150611 63 146 0.0 1.0 0.00 0.00 0.00 47 1026.6
20240225150109 63 112 1.0 1.0 0.00 0.00 0.00 50 1026.5
20240225145608 62 103 1.0 1.0 0.00 0.00 0.00 50 1026.4
20240225145107 62 121 1.0 1.0 0.00 0.00 0.00 52 1026.5
20240225144606 61 94 2.0 2.0 0.00 0.00 0.00 53 1026.5
20240225144106 61 72 2.0 2.0 0.00 0.00 0.00 56 1026.5
20240225143604 61 54 2.0 3.0 0.00 0.00 0.00 57 1026.7
20240225143102 60 169 0.0 0.0 0.00 0.00 0.00 61 1026.2
20240225142600 59 310 3.0 3.0 0.00 0.00 0.00 63 1026.2
20240225142059 59 277 0.0 1.0 0.00 0.00 0.00 64 1026.0
20240225141558 59 178 3.0 5.0 0.00 0.00 0.00 65 1026.0
20240225141057 58 160 0.0 0.0 0.00 0.00 0.00 66 1026.2
20240225140556 58 69 3.0 3.0 0.00 0.00 0.00 66 1026.0
20240225140054 58 313 1.0 1.0 0.00 0.00 0.00 67 1025.9
20240225135553 58 123 0.0 0.0 0.00 0.00 0.00 68 1025.7
20240225135051 57 139 0.0 0.0 0.00 0.00 0.00 69 1025.5
20240225134550 56 140 0.0 0.0 0.00 0.00 0.00 72 1025.6